Precipitable_Water
1.56 1.59 1.66 1.67 1.56 1.55 1.54 1.46 1.41 1.41 1.38 1.35 1.30 1.31 1.33 1.35 1.33 1.33 1.33 1.32 1.34 1.36 1.39 1.43 1.44 1.42 1.39 1.35 1.30 1.24 1.17 1.14 1.10 1.04 0.99 0.96 0.97 1.00 1.03 1.10 1.15 1.16 1.18 1.23 1.22 1.08 1.03 1.10 1.13 1.17 1.21 1.19 1.17 1.09 1.07 1.06 1.05 1.04 0.99 0.98 1.00 1.04 1.07 1.10 1.11 1.11 1.04 0.94 0.92 0.92 0.94 0.91 0.86 0.87 0.83 0.82 0.82 0.81 0.83 0.87 0.88 0.90 0.88 0.83 0.78
1.55 1.66 1.70 1.67 1.57 1.55 1.55 1.49 1.40 1.40 1.41 1.39 1.33 1.30 1.30 1.30 1.31 1.33 1.34 1.33 1.36 1.38 1.39 1.40 1.39 1.35 1.31 1.25 1.20 1.14 1.10 1.06 1.02 0.97 0.91 0.89 0.94 0.99 1.01 1.07 1.12 1.12 1.12 1.18 1.17 1.09 1.04 1.05 1.10 1.15 1.18 1.16 1.12 1.11 1.10 1.07 1.04 1.01 0.98 0.99 1.00 1.03 1.04 1.04 1.04 1.03 1.00 0.96 0.91 0.90 0.86 0.89 0.89 0.82 0.83 0.84 0.81 0.83 0.84 0.84 0.84 0.84 0.84 0.75 0.69
1.64 1.67 1.72 1.68 1.58 1.54 1.54 1.52 1.46 1.43 1.44 1.42 1.37 1.30 1.29 1.28 1.28 1.28 1.27 1.28 1.31 1.33 1.33 1.29 1.26 1.22 1.18 1.13 1.09 1.05 1.05 1.04 1.03 1.00 0.92 0.91 0.92 0.94 0.96 1.02 1.08 1.08 1.10 1.15 1.13 1.12 1.07 1.03 1.06 1.12 1.17 1.17 1.14 1.11 1.07 1.02 1.01 0.99 0.97 0.98 0.98 0.99 1.00 1.00 1.00 0.97 0.95 0.95 0.92 0.90 0.91 0.92 0.90 0.87 0.85 0.83 0.81 0.79 0.82 0.83 0.80 0.82 0.83 0.79 0.75
1.61 1.69 1.74 1.70 1.61 1.54 1.53 1.52 1.50 1.45 1.45 1.44 1.39 1.31 1.27 1.27 1.30 1.29 1.28 1.28 1.30 1.27 1.21 1.15 1.12 1.12 1.09 1.06 1.05 1.06 1.05 1.04 1.03 1.02 0.99 0.99 1.01 1.00 1.00 1.01 1.03 1.05 1.07 1.10 1.11 1.12 1.11 1.06 1.04 1.09 1.15 1.16 1.11 1.07 1.04 1.02 1.01 0.98 0.97 0.98 0.97 0.99 1.00 0.99 0.99 1.00 1.01 1.01 0.99 0.97 0.93 0.89 0.88 0.87 0.88 0.90 0.90 0.86 0.82 0.83 0.85 0.84 0.85 0.78 0.73
1.64 1.70 1.74 1.70 1.62 1.55 1.51 1.52 1.52 1.50 1.45 1.44 1.41 1.37 1.28 1.26 1.28 1.27 1.25 1.23 1.21 1.16 1.13 1.12 1.12 1.11 1.10 1.11 1.09 1.08 1.06 1.08 1.11 1.12 1.11 1.12 1.09 1.05 1.02 1.03 1.05 1.03 1.02 1.04 1.08 1.10 1.11 1.09 1.05 1.08 1.12 1.13 1.09 1.06 1.01 1.00 0.98 0.97 0.98 0.99 0.99 0.98 0.99 0.98 0.97 0.96 0.97 0.97 0.94 0.93 0.90 0.89 0.89 0.93 0.90 0.89 0.89 0.90 0.90 0.87 0.87 0.88 0.86 0.78 0.71
1.68 1.70 1.73 1.68 1.61 1.56 1.49 1.50 1.52 1.53 1.51 1.45 1.44 1.42 1.38 1.31 1.30 1.29 1.26 1.24 1.22 1.23 1.23 1.22 1.22 1.22 1.24 1.25 1.25 1.26 1.26 1.26 1.26 1.27 1.26 1.24 1.26 1.24 1.18 1.10 1.07 1.05 1.00 0.97 0.99 1.02 1.07 1.08 1.06 1.07 1.09 1.12 1.09 1.04 1.02 1.00 0.98 0.99 1.01 1.01 1.00 0.99 0.98 0.97 0.96 0.93 0.92 0.92 0.95 0.97 0.94 0.91 0.90 0.91 0.91 0.89 0.89 0.89 0.89 0.89 0.88 0.91 0.88 0.79 0.69
1.67 1.70 1.68 1.63 1.60 1.57 1.51 1.51 1.51 1.51 1.52 1.51 1.48 1.47 1.46 1.43 1.38 1.35 1.34 1.33 1.33 1.33 1.31 1.30 1.34 1.38 1.40 1.38 1.36 1.34 1.32 1.31 1.31 1.32 1.33 1.33 1.35 1.39 1.39 1.33 1.16 1.11 1.07 1.03 1.00 0.98 1.00 1.03 1.04 1.05 1.07 1.09 1.08 1.05 1.02 1.01 1.00 1.01 1.01 1.01 1.01 1.00 0.98 0.97 0.95 0.94 0.93 0.96 0.96 0.97 0.96 0.95 0.90 0.85 0.86 0.89 0.89 0.88 0.87 0.88 0.89 0.92 0.92 0.82 0.72
1.67 1.67 1.65 1.64 1.64 1.59 1.57 1.53 1.53 1.51 1.53 1.53 1.51 1.48 1.47 1.46 1.42 1.40 1.40 1.40 1.39 1.39 1.36 1.36 1.37 1.40 1.40 1.39 1.39 1.38 1.36 1.35 1.35 1.34 1.34 1.35 1.39 1.42 1.44 1.43 1.35 1.22 1.16 1.10 1.07 1.03 0.99 0.97 1.01 1.02 1.03 1.07 1.09 1.05 1.01 1.00 1.02 1.03 1.04 1.03 1.00 0.99 0.98 0.97 0.97 0.95 0.94 0.95 0.95 0.96 0.96 0.96 0.95 0.91 0.87 0.89 0.89 0.89 0.87 0.84 0.83 0.85 0.86 0.82 0.73
1.63 1.67 1.66 1.67 1.67 1.63 1.60 1.56 1.53 1.53 1.54 1.55 1.52 1.49 1.46 1.44 1.42 1.41 1.40 1.40 1.42 1.42 1.40 1.39 1.40 1.40 1.42 1.42 1.41 1.39 1.38 1.37 1.36 1.36 1.36 1.38 1.42 1.39 1.41 1.41 1.35 1.29 1.22 1.14 1.08 1.05 1.03 0.99 0.98 1.01 1.04 1.08 1.05 1.03 1.01 1.02 1.04 1.05 1.05 1.05 1.02 1.00 1.00 0.99 0.99 0.97 0.96 0.97 0.96 0.96 0.97 0.99 0.97 0.90 0.86 0.88 0.89 0.88 0.88 0.83 0.78 0.83 0.85 0.82 0.73
1.59 1.63 1.62 1.65 1.67 1.63 1.59 1.57 1.57 1.57 1.58 1.58 1.56 1.54 1.52 1.50 1.48 1.46 1.46 1.46 1.45 1.45 1.43 1.41 1.42 1.41 1.43 1.43 1.42 1.40 1.38 1.36 1.35 1.36 1.38 1.39 1.40 1.41 1.39 1.39 1.38 1.33 1.26 1.23 1.18 1.11 1.05 1.02 1.00 1.03 1.09 1.13 1.07 1.03 1.03 1.02 1.02 1.04 1.07 1.08 1.08 1.05 1.02 1.01 1.00 1.00 0.99 0.99 0.98 0.98 0.97 0.97 0.99 0.98 0.94 0.90 0.87 0.82 0.79 0.85 0.87 0.86 0.83 0.82 0.74
1.57 1.59 1.61 1.64 1.67 1.62 1.57 1.54 1.56 1.59 1.62 1.62 1.60 1.62 1.59 1.57 1.56 1.55 1.52 1.51 1.51 1.51 1.47 1.45 1.44 1.41 1.40 1.40 1.39 1.35 1.33 1.33 1.34 1.35 1.37 1.38 1.39 1.40 1.41 1.41 1.39 1.38 1.31 1.27 1.23 1.21 1.12 1.05 1.06 1.10 1.14 1.12 1.10 1.06 1.03 1.04 1.02 1.01 1.04 1.08 1.09 1.10 1.08 1.05 1.03 1.02 1.03 1.02 1.03 1.01 0.96 0.92 0.93 0.94 0.91 0.87 0.83 0.84 0.87 0.85 0.82 0.83 0.82 0.83 0.77
1.56 1.58 1.60 1.62 1.64 1.60 1.58 1.55 1.56 1.59 1.64 1.66 1.69 1.68 1.66 1.64 1.62 1.59 1.57 1.56 1.56 1.56 1.51 1.48 1.44 1.40 1.37 1.35 1.32 1.31 1.31 1.31 1.32 1.33 1.34 1.35 1.36 1.39 1.38 1.43 1.36 1.32 1.29 1.26 1.25 1.23 1.21 1.10 1.09 1.08 1.08 1.08 1.09 1.09 1.03 1.01 1.03 1.03 1.03 1.05 1.07 1.07 1.07 1.08 1.06 1.06 1.06 1.06 1.06 1.04 0.97 0.93 0.94 0.93 0.93 0.91 0.91 0.89 0.88 0.85 0.85 0.86 0.85 0.85 0.78
1.53 1.55 1.59 1.63 1.66 1.65 1.63 1.62 1.61 1.60 1.62 1.64 1.63 1.66 1.66 1.66 1.66 1.62 1.59 1.58 1.59 1.55 1.50 1.47 1.42 1.36 1.32 1.31 1.32 1.33 1.32 1.30 1.30 1.30 1.30 1.29 1.32 1.33 1.32 1.30 1.28 1.25 1.23 1.23 1.23 1.23 1.22 1.17 1.10 1.07 1.06 1.05 1.04 1.03 1.02 1.04 1.04 1.02 1.00 1.01 1.02 1.03 1.03 1.06 1.06 1.06 1.06 1.08 1.07 1.05 1.01 0.96 0.95 0.93 0.93 0.92 0.91 0.93 0.93 0.95 0.95 0.89 0.84 0.83 0.77
1.49 1.54 1.61 1.65 1.67 1.67 1.64 1.63 1.62 1.61 1.62 1.62 1.63 1.63 1.61 1.67 1.68 1.65 1.63 1.63 1.58 1.50 1.46 1.42 1.36 1.31 1.31 1.31 1.31 1.30 1.29 1.28 1.29 1.28 1.29 1.30 1.29 1.29 1.27 1.26 1.26 1.24 1.23 1.20 1.19 1.17 1.16 1.18 1.13 1.09 1.05 1.03 1.03 1.03 1.02 1.00 0.98 0.98 1.00 1.03 1.07 1.08 1.09 1.08 1.05 1.07 1.07 1.07 1.06 1.03 1.00 0.98 0.94 0.94 0.95 0.93 0.91 0.94 0.95 0.93 0.90 0.88 0.84 0.85 0.78
1.51 1.57 1.63 1.68 1.67 1.66 1.66 1.65 1.63 1.63 1.66 1.69 1.65 1.67 1.70 1.69 1.70 1.67 1.64 1.61 1.53 1.47 1.43 1.40 1.35 1.32 1.32 1.32 1.31 1.31 1.31 1.31 1.30 1.30 1.30 1.29 1.28 1.29 1.30 1.30 1.29 1.28 1.25 1.19 1.15 1.11 1.10 1.11 1.12 1.11 1.08 1.05 1.06 1.05 1.03 0.99 0.95 0.99 1.05 1.10 1.11 1.11 1.11 1.09 1.05 1.07 1.06 1.07 1.07 1.03 1.00 0.99 0.94 0.97 0.95 0.95 0.94 0.96 0.96 0.94 0.90 0.87 0.86 0.86 0.80
1.56 1.60 1.67 1.70 1.78 1.81 1.84 1.81 1.70 1.73 1.83 1.74 1.70 1.71 1.75 1.72 1.69 1.65 1.64 1.58 1.52 1.49 1.46 1.41 1.37 1.35 1.35 1.36 1.37 1.36 1.35 1.34 1.32 1.34 1.34 1.33 1.34 1.32 1.33 1.34 1.36 1.31 1.24 1.15 1.10 1.08 1.07 1.07 1.08 1.11 1.11 1.09 1.08 1.07 1.04 1.00 0.97 1.00 1.07 1.12 1.13 1.12 1.10 1.10 1.07 1.07 1.07 1.07 1.07 1.05 1.02 0.99 0.97 0.97 0.96 0.95 0.94 0.96 0.94 0.89 0.88 0.85 0.83 0.84 0.82
1.56 1.64 1.63 1.62 1.67 1.66 1.68 1.74 1.79 1.70 1.66 1.72 1.71 1.70 1.72 1.66 1.62 1.63 1.64 1.55 1.53 1.49 1.46 1.42 1.39 1.38 1.41 1.43 1.42 1.40 1.39 1.36 1.34 1.35 1.34 1.34 1.34 1.34 1.34 1.34 1.35 1.33 1.26 1.18 1.12 1.05 1.03 1.01 1.01 1.04 1.06 1.05 1.05 1.06 1.04 1.01 1.01 1.04 1.09 1.12 1.14 1.12 1.11 1.10 1.08 1.07 1.07 1.07 1.06 1.06 1.05 1.05 1.00 0.98 0.96 0.96 0.95 0.93 0.93 0.92 0.90 0.86 0.84 0.82 0.84
1.56 1.57 1.55 1.58 1.63 1.66 1.64 1.64 1.60 1.60 1.65 1.63 1.69 1.72 1.72 1.68 1.64 1.63 1.60 1.56 1.52 1.49 1.46 1.42 1.41 1.44 1.46 1.46 1.43 1.42 1.40 1.37 1.35 1.36 1.36 1.35 1.34 1.33 1.34 1.35 1.35 1.35 1.31 1.25 1.19 1.13 1.03 1.00 0.98 1.00 1.03 1.05 1.05 1.05 1.06 1.03 1.03 1.06 1.12 1.14 1.15 1.13 1.11 1.10 1.08 1.07 1.07 1.07 1.06 1.06 1.07 1.05 1.04 1.02 1.00 0.99 0.97 0.95 0.95 0.93 0.91 0.89 0.85 0.83 0.81
1.50 1.50 1.51 1.52 1.53 1.57 1.57 1.59 1.56 1.57 1.57 1.59 1.67 1.67 1.74 1.64 1.66 1.65 1.59 1.52 1.52 1.51 1.47 1.43 1.44 1.47 1.47 1.46 1.44 1.42 1.40 1.39 1.36 1.35 1.35 1.33 1.32 1.31 1.32 1.34 1.35 1.34 1.33 1.30 1.26 1.26 1.19 1.05 0.99 0.96 0.99 1.00 1.02 1.02 1.05 1.05 1.07 1.09 1.13 1.15 1.16 1.14 1.13 1.10 1.07 1.05 1.04 1.05 1.06 1.05 1.07 1.06 1.06 1.05 1.05 1.02 1.00 0.99 0.96 0.93 0.92 0.91 0.90 0.84 0.78
1.45 1.46 1.46 1.51 1.52 1.51 1.55 1.52 1.53 1.57 1.58 1.60 1.60 1.57 1.61 1.59 1.61 1.60 1.60 1.57 1.56 1.52 1.49 1.45 1.46 1.46 1.46 1.45 1.44 1.42 1.39 1.38 1.37 1.36 1.35 1.32 1.31 1.32 1.32 1.33 1.34 1.34 1.32 1.31 1.29 1.27 1.28 1.23 1.09 1.00 0.96 0.94 0.95 0.96 1.00 1.06 1.08 1.09 1.13 1.16 1.17 1.16 1.14 1.13 1.08 1.04 1.04 1.04 1.04 1.04 1.04 1.06 1.07 1.09 1.06 1.03 1.02 1.00 0.97 0.95 0.94 0.93 0.90 0.87 0.83
1.39 1.42 1.45 1.49 1.52 1.50 1.47 1.48 1.50 1.50 1.51 1.51 1.61 1.64 1.67 1.61 1.61 1.59 1.59 1.62 1.60 1.54 1.49 1.47 1.45 1.45 1.46 1.46 1.45 1.44 1.43 1.40 1.36 1.38 1.35 1.37 1.33 1.34 1.34 1.32 1.32 1.32 1.33 1.34 1.30 1.28 1.24 1.24 1.22 1.13 1.00 0.94 0.92 0.93 0.94 1.01 1.06 1.08 1.12 1.17 1.19 1.18 1.16 1.13 1.10 1.07 1.06 1.06 1.03 1.03 1.02 1.04 1.07 1.10 1.09 1.05 1.03 1.01 0.99 0.99 0.98 0.96 0.94 0.92 0.87
1.29 1.35 1.44 1.48 1.49 1.48 1.46 1.45 1.50 1.54 1.57 1.59 1.63 1.63 1.64 1.62 1.63 1.64 1.63 1.63 1.61 1.54 1.50 1.49 1.46 1.45 1.46 1.45 1.45 1.42 1.40 1.40 1.37 1.38 1.39 1.35 1.36 1.37 1.36 1.33 1.31 1.31 1.32 1.33 1.33 1.30 1.25 1.22 1.22 1.20 1.14 1.03 0.94 0.92 0.93 0.97 1.02 1.06 1.11 1.17 1.20 1.20 1.17 1.14 1.10 1.08 1.06 1.07 1.06 1.04 1.01 1.01 1.06 1.08 1.09 1.06 1.02 1.01 1.02 1.00 1.01 0.98 0.97 0.95 0.89
1.25 1.33 1.41 1.47 1.48 1.46 1.49 1.50 1.54 1.58 1.56 1.59 1.59 1.64 1.67 1.66 1.68 1.63 1.66 1.64 1.59 1.54 1.50 1.47 1.45 1.47 1.45 1.46 1.44 1.41 1.38 1.39 1.40 1.38 1.36 1.35 1.39 1.36 1.36 1.33 1.32 1.30 1.30 1.32 1.33 1.33 1.29 1.25 1.24 1.19 1.17 1.15 1.09 1.00 0.94 0.97 1.01 1.04 1.09 1.15 1.18 1.18 1.17 1.14 1.11 1.10 1.08 1.08 1.07 1.04 1.01 1.00 1.03 1.04 1.08 1.06 1.02 1.00 1.01 1.02 1.02 1.01 1.00 0.95 0.90
1.25 1.32 1.37 1.44 1.46 1.43 1.46 1.53 1.53 1.59 1.57 1.59 1.60 1.66 1.66 1.67 1.66 1.63 1.64 1.61 1.60 1.53 1.50 1.48 1.49 1.49 1.47 1.45 1.43 1.41 1.40 1.41 1.40 1.35 1.35 1.37 1.37 1.36 1.36 1.34 1.30 1.31 1.34 1.33 1.33 1.33 1.33 1.31 1.25 1.18 1.15 1.16 1.15 1.12 1.08 1.07 1.04 1.05 1.09 1.12 1.13 1.14 1.14 1.13 1.11 1.11 1.10 1.09 1.08 1.02 0.99 1.00 1.02 1.03 1.05 1.06 1.03 0.97 1.00 1.01 1.04 1.00 1.03 0.97 0.92
1.28 1.36 1.38 1.39 1.49 1.48 1.50 1.50 1.59 1.60 1.62 1.61 1.54 1.56 1.60 1.59 1.60 1.62 1.66 1.63 1.60 1.55 1.50 1.51 1.51 1.48 1.47 1.45 1.45 1.45 1.42 1.44 1.45 1.42 1.39 1.37 1.38 1.40 1.39 1.38 1.33 1.30 1.30 1.29 1.33 1.34 1.37 1.35 1.29 1.18 1.14 1.14 1.13 1.11 1.12 1.13 1.15 1.14 1.09 1.13 1.13 1.12 1.11 1.11 1.12 1.12 1.12 1.12 1.09 1.01 0.99 0.98 1.02 1.02 1.04 1.04 1.04 1.00 1.00 0.98 1.03 1.01 0.97 1.00 0.95
1.33 1.32 1.36 1.42 1.44 1.49 1.51 1.47 1.51 1.58 1.61 1.56 1.57 1.57 1.61 1.55 1.57 1.62 1.61 1.59 1.55 1.53 1.51 1.53 1.51 1.50 1.49 1.49 1.49 1.47 1.43 1.44 1.45 1.42 1.38 1.37 1.36 1.36 1.36 1.34 1.31 1.26 1.29 1.31 1.38 1.37 1.35 1.34 1.31 1.23 1.19 1.16 1.12 1.10 1.11 1.14 1.15 1.19 1.17 1.20 1.20 1.15 1.10 1.10 1.11 1.12 1.13 1.13 1.10 1.03 0.99 0.98 1.00 1.03 1.04 1.04 1.05 1.03 1.00 0.97 0.98 1.00 0.99 0.95 0.99
1.27 1.33 1.40 1.41 1.47 1.52 1.50 1.48 1.49 1.54 1.50 1.55 1.54 1.56 1.57 1.59 1.60 1.61 1.53 1.50 1.55 1.52 1.51 1.53 1.53 1.52 1.51 1.50 1.44 1.43 1.42 1.41 1.41 1.39 1.34 1.36 1.31 1.31 1.32 1.34 1.32 1.29 1.31 1.33 1.39 1.45 1.42 1.38 1.33 1.26 1.24 1.20 1.15 1.12 1.09 1.12 1.15 1.18 1.19 1.19 1.19 1.17 1.14 1.12 1.12 1.11 1.11 1.11 1.10 1.07 1.01 0.98 0.98 1.02 1.02 1.03 1.04 1.03 1.04 0.99 0.98 0.97 0.95 0.94 0.95
1.28 1.35 1.38 1.42 1.41 1.47 1.50 1.52 1.54 1.50 1.48 1.50 1.53 1.54 1.56 1.55 1.55 1.56 1.52 1.48 1.51 1.49 1.49 1.50 1.51 1.50 1.49 1.47 1.45 1.41 1.37 1.35 1.34 1.31 1.32 1.34 1.32 1.32 1.35 1.35 1.35 1.32 1.35 1.38 1.42 1.48 1.45 1.40 1.35 1.29 1.27 1.25 1.20 1.14 1.10 1.11 1.14 1.19 1.21 1.19 1.17 1.18 1.18 1.16 1.15 1.12 1.11 1.11 1.10 1.09 1.07 0.99 0.97 0.99 0.97 0.99 1.00 1.02 1.04 1.03 1.00 0.96 0.92 0.95 1.00
1.26 1.34 1.37 1.38 1.40 1.47 1.49 1.45 1.43 1.43 1.44 1.44 1.49 1.49 1.53 1.50 1.49 1.48 1.45 1.45 1.44 1.46 1.47 1.48 1.44 1.44 1.45 1.43 1.40 1.34 1.34 1.31 1.28 1.28 1.33 1.32 1.34 1.36 1.38 1.38 1.39 1.37 1.38 1.39 1.45 1.45 1.44 1.40 1.38 1.35 1.31 1.30 1.27 1.17 1.11 1.09 1.14 1.19 1.21 1.21 1.20 1.20 1.20 1.19 1.17 1.14 1.13 1.12 1.10 1.12 1.08 1.06 1.00 0.98 0.98 0.98 0.99 1.00 1.01 1.03 1.01 0.99 0.94 0.89 0.93
1.31 1.35 1.37 1.36 1.40 1.47 1.40 1.35 1.39 1.42 1.44 1.44 1.46 1.47 1.48 1.44 1.42 1.39 1.38 1.39 1.40 1.43 1.45 1.41 1.39 1.37 1.36 1.36 1.36 1.33 1.30 1.28 1.28 1.31 1.31 1.31 1.33 1.35 1.39 1.42 1.41 1.42 1.41 1.39 1.45 1.46 1.41 1.37 1.34 1.34 1.31 1.33 1.29 1.19 1.11 1.07 1.12 1.16 1.18 1.18 1.20 1.22 1.25 1.24 1.21 1.18 1.17 1.15 1.13 1.14 1.10 1.11 1.06 1.00 0.99 0.98 1.00 1.00 0.93 0.99 1.01 1.02 0.98 0.93 0.86
1.34 1.32 1.34 1.35 1.40 1.41 1.39 1.41 1.46 1.51 1.46 1.44 1.45 1.45 1.45 1.39 1.36 1.34 1.32 1.34 1.38 1.38 1.37 1.36 1.34 1.34 1.32 1.32 1.32 1.35 1.33 1.32 1.33 1.32 1.34 1.35 1.35 1.35 1.38 1.42 1.42 1.43 1.45 1.44 1.48 1.46 1.43 1.34 1.30 1.31 1.31 1.33 1.30 1.28 1.18 1.11 1.13 1.15 1.20 1.20 1.22 1.22 1.22 1.24 1.24 1.23 1.20 1.19 1.19 1.19 1.18 1.14 1.14 1.09 1.06 0.99 0.97 1.00 0.97 0.92 0.98 0.98 0.95 0.93 0.94
1.31 1.31 1.33 1.37 1.39 1.37 1.38 1.43 1.47 1.49 1.42 1.41 1.42 1.40 1.35 1.31 1.28 1.27 1.27 1.32 1.33 1.31 1.30 1.30 1.30 1.32 1.35 1.34 1.34 1.35 1.33 1.32 1.36 1.41 1.43 1.41 1.37 1.36 1.39 1.43 1.43 1.45 1.47 1.47 1.46 1.47 1.45 1.39 1.33 1.30 1.34 1.35 1.31 1.31 1.28 1.19 1.15 1.16 1.20 1.20 1.23 1.19 1.19 1.21 1.20 1.22 1.22 1.23 1.21 1.21 1.23 1.21 1.18 1.17 1.14 1.09 1.00 1.00 0.99 0.97 0.92 0.96 0.98 0.95 0.93
1.35 1.35 1.34 1.34 1.34 1.36 1.37 1.42 1.43 1.43 1.40 1.38 1.36 1.32 1.28 1.24 1.22 1.21 1.24 1.28 1.30 1.29 1.25 1.23 1.29 1.36 1.36 1.34 1.39 1.37 1.36 1.37 1.34 1.31 1.33 1.40 1.39 1.36 1.43 1.47 1.45 1.44 1.47 1.48 1.46 1.45 1.42 1.40 1.33 1.30 1.29 1.32 1.30 1.31 1.31 1.30 1.23 1.20 1.20 1.20 1.22 1.19 1.17 1.17 1.20 1.25 1.26 1.28 1.26 1.26 1.27 1.26 1.27 1.25 1.23 1.20 1.12 1.08 1.08 1.06 1.04 1.02 0.98 0.98 0.95
1.33 1.35 1.35 1.30 1.35 1.38 1.40 1.39 1.37 1.39 1.38 1.36 1.30 1.23 1.22 1.22 1.21 1.21 1.22 1.25 1.27 1.25 1.23 1.22 1.26 1.30 1.32 1.31 1.32 1.35 1.38 1.33 1.34 1.31 1.44 1.32 1.29 1.40 1.44 1.44 1.46 1.46 1.46 1.46 1.41 1.39 1.36 1.36 1.35 1.29 1.23 1.23 1.24 1.28 1.30 1.28 1.27 1.25 1.21 1.20 1.21 1.22 1.23 1.20 1.20 1.17 1.19 1.20 1.22 1.23 1.25 1.26 1.25 1.27 1.28 1.24 1.22 1.19 1.17 1.15 1.14 1.11 1.08 1.04 1.01
1.35 1.32 1.29 1.32 1.34 1.36 1.39 1.35 1.38 1.41 1.38 1.29 1.21 1.20 1.22 1.19 1.19 1.19 1.19 1.21 1.21 1.19 1.19 1.22 1.29 1.29 1.34 1.37 1.39 1.33 1.34 1.40 1.38 1.30 1.38 1.31 1.35 1.38 1.39 1.44 1.45 1.43 1.44 1.46 1.41 1.36 1.35 1.30 1.31 1.26 1.26 1.24 1.23 1.24 1.25 1.26 1.28 1.27 1.24 1.26 1.24 1.26 1.26 1.24 1.23 1.19 1.15 1.12 1.13 1.15 1.20 1.22 1.24 1.25 1.28 1.29 1.28 1.26 1.25 1.23 1.20 1.18 1.17 1.16 1.13
1.30 1.30 1.32 1.36 1.33 1.35 1.37 1.35 1.40 1.38 1.32 1.24 1.22 1.22 1.20 1.19 1.18 1.15 1.13 1.15 1.13 1.11 1.13 1.08 1.17 1.25 1.31 1.31 1.32 1.31 1.35 1.40 1.43 1.49 1.42 1.33 1.36 1.36 1.39 1.40 1.40 1.39 1.41 1.43 1.42 1.36 1.32 1.28 1.27 1.26 1.20 1.22 1.24 1.21 1.24 1.23 1.26 1.28 1.32 1.30 1.28 1.28 1.26 1.27 1.27 1.23 1.21 1.20 1.16 1.16 1.18 1.22 1.23 1.23 1.23 1.28 1.31 1.32 1.29 1.28 1.26 1.24 1.22 1.22 1.20
1.30 1.29 1.27 1.27 1.28 1.30 1.35 1.38 1.36 1.31 1.25 1.18 1.19 1.20 1.18 1.15 1.11 1.09 1.08 1.08 1.06 1.05 1.04 1.07 1.07 1.03 1.07 1.16 1.25 1.32 1.38 1.39 1.37 1.40 1.39 1.31 1.33 1.34 1.38 1.37 1.35 1.33 1.35 1.39 1.38 1.37 1.32 1.27 1.26 1.27 1.24 1.19 1.19 1.18 1.19 1.22 1.24 1.31 1.33 1.31 1.30 1.29 1.28 1.30 1.31 1.29 1.31 1.32 1.32 1.31 1.30 1.31 1.31 1.27 1.26 1.24 1.26 1.28 1.30 1.29 1.31 1.31 1.30 1.28 1.27
1.30 1.27 1.23 1.21 1.22 1.29 1.36 1.39 1.35 1.32 1.20 1.15 1.15 1.14 1.12 1.10 1.08 1.07 1.06 1.03 1.02 1.00 0.98 0.98 0.96 0.98 1.00 1.01 1.12 1.20 1.21 1.23 1.30 1.33 1.31 1.31 1.34 1.38 1.38 1.35 1.31 1.30 1.29 1.32 1.34 1.38 1.35 1.30 1.22 1.25 1.23 1.20 1.19 1.18 1.14 1.17 1.22 1.26 1.27 1.30 1.32 1.33 1.33 1.35 1.36 1.35 1.33 1.32 1.33 1.36 1.38 1.40 1.41 1.38 1.32 1.26 1.24 1.25 1.26 1.28 1.27 1.30 1.32 1.32 1.30
1.28 1.25 1.22 1.24 1.25 1.26 1.32 1.33 1.33 1.28 1.16 1.14 1.14 1.11 1.09 1.07 1.08 1.06 1.04 1.01 0.98 0.95 0.95 0.92 0.94 0.97 0.98 1.01 1.04 1.09 1.18 1.26 1.33 1.36 1.29 1.30 1.29 1.32 1.34 1.33 1.31 1.26 1.24 1.24 1.29 1.34 1.34 1.31 1.23 1.19 1.22 1.23 1.21 1.21 1.17 1.17 1.23 1.25 1.25 1.26 1.29 1.31 1.33 1.36 1.38 1.38 1.37 1.37 1.38 1.39 1.42 1.44 1.44 1.42 1.41 1.40 1.37 1.32 1.28 1.25 1.24 1.27 1.28 1.30 1.32
1.24 1.22 1.19 1.24 1.25 1.24 1.29 1.31 1.30 1.23 1.13 1.10 1.09 1.03 1.01 0.98 0.94 0.99 0.97 0.94 0.92 0.89 0.92 0.93 0.94 0.94 0.95 0.96 0.95 1.00 1.10 1.18 1.22 1.25 1.28 1.29 1.28 1.26 1.27 1.31 1.30 1.27 1.22 1.18 1.23 1.28 1.27 1.25 1.22 1.17 1.15 1.19 1.24 1.23 1.23 1.18 1.21 1.22 1.22 1.23 1.25 1.30 1.33 1.33 1.31 1.30 1.32 1.34 1.35 1.38 1.38 1.43 1.42 1.39 1.39 1.42 1.44 1.45 1.43 1.37 1.31 1.28 1.28 1.27 1.26
1.17 1.14 1.13 1.18 1.24 1.25 1.25 1.20 1.21 1.15 1.02 0.98 0.96 0.93 0.89 0.89 0.93 0.92 0.86 0.88 0.86 0.87 0.87 0.87 0.88 0.86 0.87 0.87 0.89 0.90 0.96 1.02 1.08 1.11 1.15 1.23 1.28 1.28 1.27 1.29 1.31 1.29 1.24 1.20 1.23 1.26 1.28 1.25 1.21 1.20 1.15 1.15 1.17 1.22 1.25 1.24 1.16 1.11 1.14 1.13 1.14 1.21 1.24 1.27 1.25 1.24 1.23 1.25 1.28 1.28 1.31 1.31 1.32 1.33 1.37 1.42 1.42 1.44 1.44 1.44 1.41 1.42 1.38 1.34 1.31
1.07 1.08 1.08 1.12 1.16 1.21 1.22 1.19 1.15 1.06 1.00 0.97 0.95 0.93 0.92 0.89 0.87 0.87 0.88 0.86 0.85 0.83 0.77 0.79 0.79 0.79 0.80 0.82 0.83 0.84 0.89 0.96 1.02 1.05 1.17 1.23 1.27 1.28 1.27 1.24 1.24 1.26 1.24 1.23 1.23 1.24 1.24 1.23 1.21 1.15 1.20 1.16 1.13 1.20 1.21 1.17 1.06 1.02 0.97 0.97 1.05 1.14 1.18 1.18 1.18 1.19 1.20 1.22 1.23 1.22 1.22 1.21 1.22 1.25 1.28 1.30 1.33 1.36 1.41 1.45 1.45 1.44 1.41 1.40 1.39
1.07 1.06 1.11 1.11 1.11 1.14 1.19 1.15 1.09 0.98 0.97 0.98 0.95 0.91 0.92 0.93 0.90 0.91 0.90 0.86 0.92 0.91 0.87 0.85 0.85 0.83 0.82 0.84 0.85 0.86 0.83 0.84 0.91 0.96 1.03 1.09 1.15 1.15 1.15 1.18 1.20 1.20 1.17 1.17 1.19 1.18 1.19 1.18 1.18 1.12 1.10 1.18 1.16 1.22 1.20 1.23 1.05 1.05 1.07 1.00 0.96 0.94 1.02 1.08 1.16 1.17 1.16 1.18 1.21 1.18 1.18 1.18 1.19 1.22 1.25 1.26 1.27 1.29 1.31 1.33 1.34 1.37 1.41 1.41 1.42
1.04 1.05 1.09 1.09 1.08 1.09 1.14 1.14 1.02 0.98 0.97 0.98 0.97 0.96 0.94 0.94 0.95 0.94 0.92 0.91 0.87 0.91 0.91 0.90 0.88 0.85 0.80 0.80 0.83 0.85 0.84 0.83 0.84 0.85 0.89 0.95 0.98 1.00 1.04 1.08 1.10 1.13 1.11 1.08 1.09 1.10 1.12 1.13 1.15 1.15 1.13 1.03 1.08 1.11 1.24 1.25 1.18 1.01 0.89 0.93 0.95 0.95 0.88 0.92 0.98 1.07 1.16 1.14 1.16 1.15 1.18 1.19 1.19 1.18 1.20 1.16 1.20 1.23 1.25 1.28 1.25 1.25 1.25 1.27 1.29
1.00 1.00 1.04 1.08 1.06 1.06 1.12 1.12 0.99 0.97 0.99 0.98 0.95 0.94 0.91 0.89 0.90 0.90 0.90 0.87 0.90 0.89 0.86 0.84 0.84 0.81 0.79 0.74 0.72 0.79 0.86 0.85 0.83 0.81 0.81 0.80 0.83 0.85 0.89 0.93 0.97 1.00 1.02 0.99 1.00 1.01 1.04 1.07 1.08 1.07 1.07 1.03 1.01 1.07 1.16 1.22 1.21 1.24 1.10 0.94 0.89 0.86 0.89 0.99 1.03 1.03 1.14 1.09 1.09 1.12 1.14 1.14 1.14 1.14 1.11 1.09 1.11 1.12 1.15 1.15 1.17 1.19 1.19 1.20 1.21
0.98 1.00 1.04 1.09 1.08 1.07 1.11 1.11 1.03 0.97 0.97 0.97 0.95 0.91 0.85 0.81 0.78 0.74 0.70 0.72 0.73 0.77 0.76 0.75 0.76 0.74 0.71 0.72 0.69 0.72 0.78 0.81 0.80 0.79 0.74 0.69 0.69 0.72 0.74 0.76 0.80 0.86 0.91 0.92 0.93 0.93 0.91 0.92 0.96 0.99 0.99 1.06 1.03 1.03 1.07 1.19 1.20 1.18 1.20 1.16 1.09 0.92 0.90 1.00 1.00 0.87 1.12 1.14 1.12 1.09 1.07 1.07 1.05 1.01 1.01 1.01 1.01 1.01 1.03 1.03 1.06 1.06 1.09 1.11 1.13
0.98 1.03 1.04 1.07 1.09 1.07 1.09 1.08 1.02 0.95 0.96 0.95 0.94 0.90 0.85 0.82 0.77 0.73 0.71 0.72 0.71 0.77 0.82 0.84 0.82 0.77 0.75 0.69 0.68 0.71 0.76 0.77 0.77 0.76 0.74 0.76 0.77 0.77 0.77 0.77 0.78 0.80 0.82 0.83 0.81 0.81 0.82 0.84 0.89 0.91 0.96 1.01 1.03 0.95 0.99 1.02 1.08 1.14 1.16 1.17 1.15 1.12 1.11 0.98 0.89 0.96 0.88 0.99 1.07 1.03 0.97 0.98 0.96 0.95 0.92 0.92 0.93 0.94 0.95 0.95 0.94 0.95 0.95 0.96 0.98
1.01 1.04 1.05 1.09 1.07 1.04 1.04 1.02 1.00 0.97 0.92 0.93 0.92 0.90 0.84 0.81 0.78 0.75 0.74 0.75 0.77 0.76 0.80 0.81 0.84 0.80 0.74 0.70 0.71 0.70 0.73 0.78 0.77 0.75 0.76 0.76 0.76 0.75 0.77 0.78 0.79 0.79 0.82 0.81 0.82 0.85 0.88 0.89 0.91 0.94 0.97 0.97 0.99 0.95 0.99 1.05 0.98 0.99 1.10 1.08 1.05 1.06 1.07 1.05 1.04 0.98 0.93 0.84 0.88 0.97 0.94 0.91 0.89 0.88 0.86 0.84 0.82 0.82 0.83 0.85 0.86 0.89 0.91 0.91 0.91
1.02 1.02 1.03 1.07 1.08 1.06 1.03 1.00 0.98 0.97 0.94 0.93 0.91 0.90 0.89 0.84 0.80 0.76 0.73 0.77 0.82 0.84 0.83 0.82 0.79 0.78 0.73 0.73 0.72 0.69 0.69 0.72 0.73 0.72 0.72 0.73 0.73 0.72 0.73 0.75 0.77 0.78 0.80 0.80 0.81 0.84 0.84 0.83 0.84 0.87 0.90 0.94 0.97 0.98 0.98 0.97 1.00 0.97 1.00 1.00 1.03 1.02 1.04 1.06 1.04 1.04 0.97 0.88 0.85 0.81 0.77 0.82 0.81 0.79 0.77 0.75 0.73 0.70 0.69 0.70 0.73 0.76 0.81 0.84 0.87
1.04 1.06 1.05 1.07 1.07 1.05 1.01 0.99 0.97 0.97 0.97 0.93 0.91 0.90 0.88 0.85 0.81 0.78 0.75 0.78 0.85 0.86 0.83 0.77 0.74 0.72 0.68 0.69 0.69 0.67 0.66 0.66 0.67 0.66 0.67 0.67 0.69 0.71 0.72 0.75 0.77 0.78 0.77 0.75 0.76 0.76 0.77 0.79 0.80 0.82 0.84 0.85 0.91 0.92 0.93 0.95 0.99 1.03 1.03 1.00 0.96 0.97 0.97 0.95 0.96 0.94 0.93 0.90 0.75 0.69 0.67 0.63 0.57 0.61 0.63 0.55 0.53 0.54 0.56 0.58 0.60 0.63 0.66 0.69 0.74
1.04 1.04 1.03 1.04 1.04 1.02 1.00 0.97 0.98 1.00 0.99 0.94 0.89 0.87 0.87 0.87 0.84 0.82 0.79 0.80 0.84 0.83 0.79 0.74 0.71 0.67 0.65 0.65 0.67 0.66 0.65 0.62 0.63 0.61 0.62 0.62 0.64 0.66 0.66 0.73 0.78 0.78 0.75 0.74 0.72 0.71 0.74 0.76 0.78 0.80 0.80 0.80 0.81 0.83 0.85 0.89 0.93 0.94 0.96 0.96 0.94 0.92 0.87 0.83 0.82 0.82 0.76 0.67 0.62 0.59 0.59 0.58 0.53 0.50 0.48 0.52 0.50 0.50 0.52 0.54 0.55 0.57 0.58 0.59 0.60
Wind_Speed
12 12 11 11 10 9 8 7 7 6 6 5 4 3 2 2 2 2 3 3 2 2 2 2 2 1 0 0 1 2 2 3 3 3 2 2 1 1 1 2 2 3 3 4 4 4 5 5 5 5 5 5 5 5 5 5 5 5 6 7 8 8 8 8 8 8 9 9 10 10 11 11 11 11 11 11 11 11 11 11 11 11 11 11 11
11 12 11 11 10 10 9 8 8 7 6 5 4 4 3 3 3 3 3 3 3 3 2 2 2 1 1 0 1 1 2 2 3 3 2 2 1 1 1 2 2 3 4 4 5 5 5 6 5 5 5 5 5 5 5 5 5 5 6 6 7 8 8 8 8 8 8 9 9 10 10 10 10 10 11 10 11 11 11 11 11 11 11 12 12
11 11 11 11 11 10 9 9 8 8 7 6 5 5 4 3 3 4 4 4 3 3 3 2 2 2 1 1 1 1 2 2 3 3 3 2 1 1 2 2 3 3 4 5 5 6 6 6 6 6 6 6 6 5 5 5 5 5 6 6 7 7 8 8 8 8 8 9 9 10 10 10 10 10 10 10 10 10 10 11 11 11 12 12 13
11 11 11 11 11 10 10 9 9 8 7 7 6 6 6 5 4 5 5 4 3 3 3 3 2 2 2 2 1 1 2 2 3 3 3 2 2 2 2 2 3 3 4 5 5 6 6 7 7 7 6 6 6 6 5 5 5 5 5 6 6 7 7 7 7 7 8 9 9 9 10 10 10 10 10 10 10 10 10 10 11 11 11 12 13
11 11 11 11 11 11 10 10 9 9 8 8 7 6 6 6 6 6 6 5 4 4 4 3 3 3 2 2 2 2 2 2 3 3 3 2 2 1 2 2 3 4 4 5 6 6 7 7 8 8 7 7 7 6 6 5 5 5 5 6 6 6 6 6 7 7 7 8 8 9 9 9 9 9 9 10 10 10 10 10 11 11 11 12 12
11 11 11 11 11 11 11 10 10 10 9 8 8 7 7 7 7 7 7 6 5 5 4 4 4 4 3 3 2 2 2 2 2 2 2 3 2 1 2 2 3 4 5 5 6 7 7 8 8 8 8 8 7 7 6 6 6 6 6 5 5 5 6 6 6 7 7 7 8 8 8 8 9 9 9 9 9 10 10 10 10 10 11 12 12
11 11 11 11 11 11 11 11 11 10 10 9 8 8 8 8 8 8 8 7 6 5 5 4 4 4 4 3 3 3 3 2 2 2 3 2 2 2 1 2 3 4 5 6 6 7 8 8 9 9 9 8 8 8 7 7 7 6 6 5 5 5 5 5 6 6 6 6 7 7 7 8 8 8 8 9 9 9 9 9 10 10 10 11 11
11 11 11 11 11 11 11 11 11 10 10 10 9 9 9 9 9 9 8 7 7 6 5 5 4 4 4 3 3 3 3 3 3 3 3 3 2 2 2 2 3 4 5 6 6 7 8 9 9 9 9 9 9 9 8 8 7 7 6 5 5 4 4 5 5 6 6 6 6 6 6 7 7 8 8 8 8 9 9 9 9 9 10 10 11
11 11 11 11 11 12 12 12 11 11 11 11 10 10 10 10 10 9 9 8 7 7 6 5 4 4 4 4 3 3 3 3 3 4 4 3 3 3 3 3 3 4 5 6 7 8 8 9 9 10 10 10 10 10 9 9 8 7 6 6 5 4 4 4 4 5 5 5 5 5 5 6 6 7 7 7 8 8 8 8 9 9 9 10 10
11 11 12 12 12 12 12 12 12 12 12 12 11 11 11 10 10 10 9 9 8 7 7 6 5 5 5 4 4 4 4 4 4 4 4 4 3 3 3 3 3 4 5 6 7 8 9 9 10 10 11 10 10 10 10 9 9 8 7 6 5 5 4 4 4 4 4 5 5 5 5 5 5 6 6 6 7 7 8 8 8 8 9 9 10
11 11 12 12 12 13 13 13 13 13 13 13 12 11 11 11 11 11 10 10 9 8 8 7 6 5 5 5 5 5 5 5 5 5 4 4 4 4 4 4 4 4 5 6 7 9 9 9 10 11 11 11 11 11 11 10 10 9 8 7 6 5 4 4 4 3 4 4 4 4 5 4 5 5 6 6 6 6 7 7 8 8 8 8 9
12 12 12 12 13 13 14 14 14 14 13 13 12 12 12 11 11 11 11 10 10 9 8 7 7 6 6 6 5 5 5 6 5 5 5 5 5 4 4 4 4 5 5 6 8 9 10 10 10 11 11 11 11 11 11 11 10 10 9 8 7 7 6 5 4 4 3 3 4 4 4 4 4 5 5 5 5 5 6 6 7 7 8 8 8
11 12 12 12 13 13 14 14 14 14 14 13 13 13 13 12 12 11 11 10 10 10 9 8 7 6 6 6 6 6 6 6 5 5 5 5 5 5 5 5 5 5 6 7 8 9 10 11 11 11 11 12 12 12 12 12 11 10 10 9 8 8 7 6 5 4 4 3 3 3 3 3 4 4 4 5 5 5 5 5 6 6 7 7 7
11 11 12 12 13 13 13 14 14 15 15 14 14 13 13 13 13 12 11 10 10 10 9 8 7 6 6 6 6 6 6 6 6 6 6 5 5 5 5 5 5 6 6 7 8 8 10 11 11 11 12 12 12 12 12 12 12 11 11 10 9 9 8 7 6 5 4 4 3 3 3 3 3 4 4 4 4 4 4 5 5 5 6 6 7
11 11 12 12 13 13 13 13 14 14 15 14 13 13 13 13 14 12 11 11 11 10 9 8 7 7 6 6 6 6 6 6 6 6 6 6 6 6 6 6 6 6 6 7 8 8 9 10 11 11 12 12 13 13 13 13 13 12 11 11 10 10 9 8 7 6 5 4 4 4 3 3 3 3 3 3 3 3 3 4 4 4 5 5 6
11 12 12 12 12 12 12 13 13 13 14 14 13 14 13 13 14 12 12 11 11 10 9 8 7 7 6 6 6 6 6 6 6 6 6 6 6 6 6 6 6 6 6 7 7 8 9 10 11 11 12 12 13 13 14 14 13 13 12 12 11 11 10 9 8 8 6 5 5 5 4 4 4 3 2 2 2 2 2 3 3 3 3 4 5
11 11 11 11 12 12 12 12 12 13 14 15 15 14 14 13 13 12 12 11 11 10 10 9 8 7 6 6 6 6 6 6 7 6 6 6 6 6 6 6 6 6 6 7 7 8 9 9 10 11 12 13 13 14 14 14 14 13 13 13 13 12 11 10 9 9 8 7 6 6 5 5 5 4 3 3 2 1 1 2 2 2 3 3 4
11 11 11 12 12 13 12 12 12 13 13 14 15 15 14 13 13 13 13 12 11 11 10 8 8 7 7 6 6 6 6 7 7 7 6 6 6 6 6 6 6 7 7 7 7 7 8 9 10 11 12 13 13 14 14 15 15 14 14 14 14 13 12 11 10 10 9 8 7 7 6 6 6 6 5 4 3 2 2 1 2 2 2 2 2
11 11 11 12 12 12 12 11 11 12 12 13 13 14 14 13 13 13 12 12 11 11 9 8 8 7 7 7 7 6 7 7 7 7 6 6 6 6 6 6 7 7 7 7 7 7 8 8 10 11 12 12 13 14 15 15 15 15 14 15 15 14 13 12 11 11 10 10 9 8 8 7 8 7 7 6 5 3 3 2 2 2 2 1 1
11 11 11 11 11 11 11 11 11 11 12 12 12 13 14 14 13 12 12 12 11 10 9 8 8 8 8 8 7 7 7 7 7 7 7 7 7 7 7 7 7 7 7 8 8 8 8 9 9 10 11 12 13 14 14 15 15 16 15 16 16 15 14 14 13 12 11 10 10 10 9 9 9 8 8 7 6 5 4 4 3 3 2 2 2
11 11 11 11 11 11 11 11 11 12 12 13 12 12 13 14 14 13 12 12 11 10 9 8 8 8 8 8 8 8 8 8 7 7 7 7 7 7 7 7 7 8 8 8 9 9 9 9 10 10 11 12 12 13 14 15 16 16 16 16 17 16 15 15 14 13 12 11 11 11 10 10 10 9 9 9 8 7 6 5 5 4 4 3 3
11 11 11 11 10 10 11 11 11 11 12 12 12 12 12 13 14 13 12 11 10 9 9 9 9 9 9 9 9 8 8 8 8 7 8 8 8 8 8 8 8 8 9 9 9 9 10 10 10 10 10 11 12 13 14 15 16 16 16 17 17 17 16 15 15 14 13 12 12 12 11 11 11 11 10 10 10 9 8 7 6 6 5 5 4
11 11 11 11 10 10 11 11 11 11 11 11 12 12 12 12 13 13 12 11 10 10 9 9 8 9 9 9 8 8 8 8 8 8 8 8 8 9 9 9 9 9 9 9 9 9 10 10 10 10 11 11 11 12 13 14 15 16 16 17 17 18 17 16 15 15 14 13 13 12 12 12 12 12 12 11 11 10 10 9 8 7 7 6 6
11 10 10 10 10 10 11 11 11 10 10 11 11 11 12 12 12 11 11 11 10 10 10 9 9 9 9 9 9 9 9 9 8 8 9 9 9 9 9 9 9 9 9 9 8 9 9 10 10 10 11 11 11 12 12 13 14 15 15 16 17 17 17 17 16 15 15 14 14 13 13 13 13 13 12 12 12 11 11 10 10 9 8 8 7
10 10 9 10 10 10 10 10 10 11 10 10 11 11 11 11 12 12 11 11 11 10 10 10 9 9 10 10 10 10 10 10 9 9 9 9 10 10 10 10 9 9 9 9 9 8 9 9 10 10 10 10 11 11 12 13 13 13 14 15 16 17 17 17 16 16 15 15 15 14 14 13 13 13 13 13 13 12 12 12 11 10 9 9 9
10 9 9 9 9 10 9 10 11 11 11 11 11 11 11 11 12 13 12 12 11 11 10 10 10 10 11 11 11 11 11 10 10 10 10 10 10 10 11 10 10 10 9 9 9 8 8 9 9 9 9 10 10 11 12 13 13 13 13 14 15 16 16 17 16 16 16 15 15 15 15 14 14 14 13 14 13 13 13 12 12 12 11 10 10
10 9 9 9 9 10 9 10 10 10 11 11 11 11 11 11 12 12 13 12 12 12 11 11 11 11 12 12 12 12 12 12 11 11 11 10 10 10 11 10 10 10 10 9 9 8 8 8 8 9 9 9 9 10 11 12 13 13 13 13 14 15 16 16 16 16 15 15 15 15 15 15 14 14 14 14 14 14 13 13 13 13 12 12 11
11 10 10 9 9 10 9 9 9 10 10 10 10 10 10 11 11 11 12 12 12 12 13 13 13 13 14 14 14 14 13 13 12 12 11 11 11 11 11 10 10 10 9 9 9 8 8 8 8 8 8 8 8 9 10 11 12 12 12 13 13 14 14 15 15 15 15 15 15 15 15 15 15 14 14 14 14 14 14 14 14 13 13 13 12
11 11 10 10 9 9 9 9 8 9 9 9 9 9 9 9 10 9 10 11 12 12 13 13 14 14 14 14 14 13 13 13 13 12 12 12 11 11 11 11 10 10 10 9 9 8 8 8 8 8 8 8 8 8 9 10 11 11 12 12 12 13 13 14 14 14 14 14 14 14 15 15 15 14 14 14 14 14 15 15 14 14 14 14 14
11 11 10 10 9 8 8 8 8 8 8 8 8 8 8 8 8 8 9 10 10 11 12 13 13 13 13 13 13 13 13 13 13 13 13 12 12 12 11 11 11 10 10 10 9 9 8 8 8 8 8 8 7 7 8 9 9 10 11 11 11 12 12 12 13 13 13 13 14 14 14 14 14 14 14 14 14 14 15 15 15 15 14 15 15
10 10 10 10 9 8 8 8 8 8 8 7 7 7 7 7 7 7 8 8 9 10 11 11 12 12 12 12 12 12 12 13 13 13 13 12 12 11 11 11 11 10 10 10 9 9 8 8 8 9 8 8 8 8 8 8 9 9 9 10 10 11 11 12 12 13 13 13 13 13 13 14 14 14 14 14 14 14 14 15 15 15 15 15 15
10 10 10 10 9 8 8 8 8 8 8 7 7 7 7 7 7 7 8 8 9 10 11 11 12 12 12 12 12 12 12 12 12 12 12 12 11 10 10 10 11 10 10 10 10 9 9 8 8 9 9 8 8 8 8 8 9 9 9 9 10 10 11 11 12 12 12 12 12 12 13 13 13 14 14 14 14 14 14 15 15 15 15 15 15
9 10 10 10 9 9 9 9 9 8 8 7 7 7 7 7 7 8 9 9 10 10 11 11 12 12 12 12 13 12 12 12 12 12 12 11 10 9 10 10 10 10 10 10 10 10 9 9 8 9 9 8 8 8 9 9 9 9 9 9 10 10 10 10 11 11 11 11 12 12 12 12 12 13 13 14 14 14 15 15 15 15 15 15 15
9 9 10 10 10 9 9 9 9 8 8 7 7 7 7 8 8 9 9 9 9 10 10 11 12 12 12 12 13 12 12 12 13 12 11 10 9 10 10 10 9 9 9 9 9 9 9 9 9 9 9 9 8 8 9 9 10 10 10 10 10 10 10 10 10 11 11 11 11 12 12 12 12 12 12 13 13 14 14 15 15 16 16 15 16
9 10 10 10 10 10 9 9 9 9 8 8 7 7 7 8 8 8 8 8 8 9 9 10 11 11 12 12 12 12 12 12 13 12 10 10 10 10 10 10 10 9 9 9 9 9 9 9 9 9 9 9 9 9 9 9 10 10 10 10 10 10 10 10 11 11 11 11 11 12 12 12 12 12 12 13 13 13 14 15 15 16 16 16 16
9 9 9 9 9 10 9 9 9 9 9 8 7 7 7 7 7 7 7 7 7 8 8 9 10 10 11 11 11 11 11 11 12 11 9 9 9 9 9 9 9 9 9 9 9 9 9 9 9 9 9 10 10 10 10 10 10 10 10 11 10 10 10 11 11 11 11 11 11 11 12 12 13 13 13 13 13 14 14 14 15 16 16 17 17
10 9 9 9 9 10 9 9 9 9 9 8 8 7 7 6 6 6 6 6 7 7 7 8 8 9 9 10 10 10 10 10 10 10 9 9 9 9 9 9 9 9 9 9 9 9 9 10 10 10 10 10 10 10 10 10 10 10 10 10 10 10 11 10 11 11 11 11 11 11 12 12 12 12 13 13 14 14 15 15 15 16 16 17 17
11 10 10 10 10 10 9 9 9 9 9 9 8 8 7 6 5 5 5 5 6 6 6 7 7 8 8 9 9 9 9 9 9 9 9 9 9 9 9 9 10 10 10 10 10 10 10 10 10 10 10 10 10 10 10 10 10 10 10 9 10 10 10 11 11 11 11 11 11 12 12 12 12 12 13 13 14 15 15 15 15 16 16 16 17
12 11 11 10 10 10 10 9 9 8 9 8 8 7 6 6 5 4 4 4 4 5 5 6 6 7 7 8 8 9 9 9 9 9 9 10 10 10 10 10 10 11 11 10 10 10 10 10 10 10 10 10 10 10 10 10 10 10 10 9 10 10 10 11 11 11 11 11 12 12 12 12 12 12 13 13 14 14 15 15 15 15 16 16 17
12 12 11 10 10 11 11 10 9 9 8 8 7 7 6 6 5 4 4 4 4 4 5 5 6 6 7 7 7 8 9 9 9 10 10 10 10 10 11 11 11 11 11 11 11 11 11 11 10 10 10 10 10 10 10 10 10 10 10 10 10 10 10 10 10 10 11 11 11 11 11 11 11 11 12 12 13 13 14 14 15 15 15 16 16
13 13 12 11 10 11 11 11 10 9 9 8 8 7 6 6 5 5 4 4 4 4 5 5 6 6 6 7 7 8 8 9 9 9 9 9 9 10 10 11 11 11 11 11 11 11 11 11 11 11 10 10 10 10 10 10 10 9 9 9 9 9 9 9 10 10 10 10 10 10 10 10 10 10 11 11 12 12 13 13 14 15 15 16 16
14 14 13 12 11 12 12 11 11 10 9 9 8 7 7 6 5 5 4 4 4 4 5 5 5 6 6 6 6 7 7 8 8 9 9 9 9 10 10 11 11 11 11 11 11 11 11 11 11 11 11 10 10 10 10 10 10 10 10 10 9 9 9 10 10 10 10 10 10 10 10 10 10 10 10 10 11 11 11 12 12 13 14 15 16
14 14 13 12 12 12 13 12 12 11 10 10 8 8 7 7 6 5 5 4 4 5 5 6 6 6 6 6 6 6 7 7 7 8 9 9 10 10 10 11 11 11 11 11 11 11 11 11 11 11 11 10 10 11 11 11 11 11 10 10 10 9 10 10 10 10 10 10 10 10 10 9 9 9 9 9 10 10 11 11 12 12 13 13 14
15 14 13 13 13 13 13 13 12 11 11 10 9 8 7 7 6 6 5 5 4 5 6 6 6 6 6 7 6 6 6 6 7 8 9 9 10 10 10 11 11 11 11 11 11 11 11 11 12 12 11 11 11 11 12 12 12 11 10 10 10 10 10 10 10 9 9 9 9 9 8 8 8 8 9 9 9 9 10 11 11 12 12 13 14
15 15 14 13 13 13 13 13 13 12 11 11 9 9 8 7 7 6 5 5 5 5 6 7 7 7 7 8 7 6 6 6 7 7 8 9 9 10 10 11 11 11 11 11 11 11 11 12 12 12 12 12 12 12 12 12 12 12 11 10 10 10 10 10 9 9 9 9 9 8 8 8 9 9 9 9 9 9 10 10 11 11 12 13 13
14 14 13 13 13 13 14 14 13 12 12 11 10 10 9 8 8 7 6 6 6 6 7 7 8 8 8 8 8 7 6 6 7 8 8 8 8 9 9 10 10 11 11 11 11 11 12 12 12 12 13 13 13 13 12 12 12 12 12 11 11 11 11 11 10 9 9 8 8 8 8 8 9 9 9 9 9 10 10 10 10 11 11 12 13
13 14 13 13 13 13 13 14 13 13 12 11 11 11 10 10 9 8 7 7 7 7 7 8 8 8 8 8 8 7 6 7 7 8 8 8 7 8 8 8 9 9 10 11 11 11 11 12 12 12 13 13 13 13 13 12 12 12 12 12 11 11 11 11 11 10 9 8 8 8 8 8 8 9 9 9 9 10 10 10 10 11 11 11 11
13 13 13 13 13 13 13 14 14 13 13 12 12 12 11 10 10 9 8 8 8 8 8 8 8 8 8 8 8 8 7 7 8 8 8 8 8 8 8 8 8 8 9 9 10 10 10 10 11 12 12 12 12 13 13 12 12 12 12 11 11 11 11 11 11 11 10 9 8 8 8 8 8 9 9 9 9 10 10 10 10 10 10 10 10
12 13 13 13 12 12 12 13 13 13 13 12 12 12 11 10 10 9 9 9 9 9 9 9 9 9 9 9 9 9 8 8 8 9 9 8 8 8 8 8 8 8 8 8 8 8 9 9 9 10 11 11 11 12 12 12 12 12 12 11 10 10 10 10 11 11 10 10 9 9 9 9 9 9 10 10 10 9 9 10 10 10 10 10 10
12 12 13 12 12 12 12 12 13 13 12 12 12 11 11 10 10 10 9 9 9 9 9 10 10 10 10 10 10 9 9 9 9 10 9 9 8 8 7 7 7 7 7 7 7 8 8 8 8 9 9 10 10 11 11 12 12 12 11 11 11 10 10 11 11 11 11 11 11 11 10 10 10 9 10 10 9 9 9 9 9 9 9 9 9
13 13 13 13 13 12 12 12 12 13 12 12 12 12 12 11 11 10 10 10 10 10 10 10 11 11 11 11 11 11 10 10 10 10 10 9 8 7 7 6 7 7 7 7 7 7 7 7 7 7 8 8 9 9 10 10 11 11 11 11 11 11 11 11 11 11 11 11 11 10 10 10 9 9 9 9 9 9 8 8 9 9 9 9 9
Wind_Direction
234 231 228 226 228 229 233 236 241 246 250 259 263 268 254 240 230 227 224 216 211 203 192 187 188 193 196 23 14 12 6 3 358 355 346 332 313 283 247 231 205 187 184 182 182 182 181 177 172 165 157 153 149 142 131 118 109 99 92 88 84 83 82 82 84 85 86 88 86 84 81 78 77 76 75 76 76 75 73 70 69 67 66 66 66
228 228 225 225 226 229 232 234 241 243 246 250 250 253 247 241 229 223 224 224 224 221 214 209 216 230 238 268 345 348 350 355 356 355 348 333 298 270 245 233 220 199 187 186 189 189 188 186 183 177 167 160 157 151 138 125 118 109 102 96 90 86 84 83 84 85 87 90 88 85 83 80 77 77 76 76 77 76 73 70 69 67 66 65 65
219 225 225 224 226 230 232 234 238 241 244 245 246 248 246 242 230 223 221 225 229 230 228 225 231 240 241 249 292 315 338 348 351 352 348 334 292 263 241 224 216 205 194 191 193 191 192 192 190 186 176 167 165 159 146 135 129 120 111 103 97 91 87 86 87 87 89 92 91 88 84 81 78 76 76 77 79 78 75 72 70 68 67 65 65
217 221 225 224 227 231 233 236 237 240 242 243 247 249 246 239 230 222 218 223 231 235 235 234 236 240 243 249 269 292 323 336 341 342 336 325 300 263 233 211 204 204 202 201 199 195 195 195 193 191 184 175 171 166 156 146 140 131 121 112 105 97 91 89 90 90 90 92 92 89 84 81 78 76 75 76 78 79 78 75 73 70 69 66 65
218 219 223 225 230 233 235 237 238 240 241 243 248 250 245 237 231 224 220 225 232 237 236 237 238 242 248 256 269 288 303 316 327 331 327 318 308 267 222 207 202 205 207 208 206 202 199 197 196 194 190 182 177 173 165 155 149 140 131 120 112 104 98 93 94 94 92 94 93 89 85 82 79 76 75 75 77 78 79 77 75 72 71 68 66
219 220 223 228 232 234 236 238 239 239 240 244 246 247 242 234 230 225 225 229 235 238 237 240 243 248 254 261 271 280 288 299 312 321 324 313 302 278 224 212 210 212 211 209 208 207 204 201 199 196 194 188 181 178 171 164 157 148 141 130 120 112 106 99 97 97 96 97 95 91 87 83 80 77 76 76 76 78 79 78 77 75 73 70 67
221 224 227 232 234 236 238 239 239 239 241 243 245 245 239 233 229 228 230 233 237 237 237 240 245 253 256 260 265 273 279 288 298 305 317 311 292 282 250 224 218 218 214 211 210 208 206 204 202 199 197 192 186 182 177 171 165 157 150 139 130 122 114 107 102 102 100 100 97 94 90 86 82 78 77 77 76 77 79 78 77 76 74 71 69
225 229 232 235 237 237 238 240 239 241 241 241 242 242 238 234 231 230 232 235 237 234 232 237 243 249 249 250 258 267 273 280 289 296 305 306 293 283 272 245 224 221 219 216 215 212 209 206 205 203 200 195 189 185 181 177 173 168 161 152 142 134 125 117 110 108 104 101 101 98 93 88 83 80 79 77 77 78 79 79 77 76 75 72 71
231 235 236 238 239 238 239 240 240 241 241 240 240 238 236 234 232 230 230 233 232 227 227 235 241 242 243 247 256 262 269 275 282 291 296 297 295 289 275 256 229 223 223 222 219 216 213 210 208 205 201 197 191 187 186 183 182 179 175 168 158 150 141 131 122 117 110 105 106 103 96 90 85 82 81 78 78 79 79 79 79 78 75 73 72
237 239 239 240 240 240 241 240 241 242 242 241 240 237 233 232 230 228 227 226 224 224 228 235 238 241 247 252 257 260 264 269 275 283 287 288 294 293 277 256 236 226 227 226 223 220 218 215 212 207 202 199 195 192 192 192 191 190 188 183 176 169 160 151 140 129 120 113 112 110 103 95 88 85 84 82 80 79 80 80 80 79 76 74 74
240 241 241 243 242 243 243 243 243 243 244 242 240 235 230 229 229 226 224 222 224 227 230 234 236 242 251 257 260 260 261 266 274 278 278 283 292 292 278 259 246 236 233 231 227 224 221 218 215 210 205 203 200 197 199 200 198 197 197 195 192 188 182 174 163 147 135 126 121 119 114 104 94 91 89 88 84 81 81 82 81 79 78 76 74
243 244 245 246 247 246 245 245 244 244 243 240 238 234 229 228 226 224 222 223 226 227 230 232 234 244 253 258 260 260 263 267 270 272 275 283 289 285 276 264 254 246 239 234 231 227 223 219 215 213 210 208 206 203 202 204 203 202 204 204 202 201 198 192 183 170 156 144 138 135 126 115 104 100 96 93 90 85 83 84 84 81 79 77 74
245 248 250 249 250 248 247 247 246 243 240 239 237 233 230 227 224 221 223 227 227 227 229 228 233 244 251 254 256 257 260 262 266 271 278 284 285 279 273 266 259 252 245 238 233 229 225 221 216 215 214 212 210 207 205 206 208 208 209 210 209 209 206 202 196 188 177 167 159 154 144 131 119 112 103 96 94 89 86 86 86 83 81 78 75
247 251 252 251 252 251 248 247 247 243 240 239 237 231 226 223 219 218 224 231 228 226 225 225 233 241 245 250 251 253 254 259 267 274 280 282 282 279 274 268 261 256 250 242 236 231 227 223 219 216 216 215 213 211 209 210 212 213 214 214 214 212 209 207 204 199 194 187 179 173 167 155 141 130 113 102 99 94 92 90 87 84 84 81 76
250 252 254 255 255 252 249 248 248 245 238 234 232 228 222 217 214 217 224 227 224 220 221 226 234 236 241 248 250 253 255 262 270 276 281 281 281 280 275 267 261 257 253 246 238 233 228 224 221 218 218 217 215 214 213 214 216 216 217 217 216 213 211 211 210 207 205 202 196 191 188 180 170 156 134 116 107 102 99 97 92 88 88 84 79
252 251 254 256 253 250 250 250 248 244 235 230 229 223 219 216 215 219 221 219 217 216 222 228 231 232 239 246 251 255 259 265 271 275 279 280 281 280 276 268 262 259 257 250 241 234 229 226 223 221 220 220 218 217 216 217 219 219 219 219 217 215 214 214 213 212 212 212 210 207 204 198 193 188 172 149 129 119 111 108 105 98 94 90 85
252 251 254 255 251 251 253 253 248 244 237 232 229 222 220 219 218 220 216 214 215 218 224 226 226 230 238 245 250 255 261 266 269 273 275 277 279 277 274 269 263 259 256 250 242 235 231 229 226 223 222 222 220 219 218 219 221 222 222 221 218 217 217 217 217 217 218 218 218 217 216 212 208 207 202 192 176 161 148 133 124 116 105 98 94
253 251 252 252 251 250 250 250 247 243 237 231 225 219 217 216 217 218 215 216 218 221 222 221 224 231 238 242 246 253 260 264 268 270 271 275 276 275 273 268 262 257 253 249 244 238 234 232 229 227 225 223 222 220 220 220 223 224 223 221 218 218 219 221 222 222 222 223 225 225 224 221 217 216 215 212 210 207 204 184 159 144 128 115 106
255 252 251 250 248 246 244 246 244 237 232 228 220 214 214 215 216 214 215 216 216 218 219 219 225 233 238 239 243 250 256 262 266 267 269 272 274 273 270 266 260 256 254 251 248 243 239 235 231 230 229 226 223 222 222 223 225 226 225 221 218 219 221 223 226 226 226 228 229 230 230 227 224 223 222 222 223 225 226 222 208 191 174 159 136
258 254 252 250 246 243 241 242 240 234 230 226 221 217 217 217 214 210 212 211 210 215 218 222 230 238 241 241 245 249 255 259 262 265 267 270 272 271 267 265 262 257 256 254 251 247 243 239 235 232 230 229 225 222 222 224 226 228 227 223 220 220 223 225 227 228 230 231 232 233 233 233 231 229 227 227 228 231 234 236 232 223 215 209 200
258 255 252 248 244 241 240 240 238 234 230 227 226 222 219 217 213 209 208 207 210 215 219 228 238 244 245 246 249 250 254 257 261 265 266 268 268 267 266 265 264 261 259 257 253 249 245 242 238 234 231 230 227 225 224 225 228 229 228 224 222 223 225 226 227 230 232 234 234 235 236 236 237 234 232 231 231 233 235 238 239 237 232 227 226
254 252 250 246 243 241 239 240 237 233 232 231 228 223 221 218 215 211 210 211 214 216 223 236 244 247 246 247 250 251 255 257 261 264 266 267 265 264 265 265 265 264 262 260 256 250 246 244 241 238 234 231 228 227 225 225 228 229 228 225 224 224 226 227 229 231 234 237 237 237 238 239 240 239 237 235 235 235 236 239 240 241 239 236 236
247 246 247 245 243 241 239 238 235 233 233 232 227 223 222 218 214 214 216 218 219 221 231 240 244 247 247 249 253 254 256 260 263 265 266 265 264 264 265 266 266 264 263 261 257 251 246 244 244 242 237 233 230 228 225 225 227 229 228 226 225 225 226 228 230 233 236 239 240 239 239 240 241 241 240 239 238 238 239 240 240 242 242 240 240
241 241 243 244 243 240 237 237 234 232 231 229 227 221 216 216 217 218 219 220 223 229 236 242 245 249 251 254 256 258 260 263 265 266 266 264 263 264 264 266 265 263 261 261 258 253 247 245 245 244 239 235 232 230 226 225 227 228 228 226 225 225 227 229 231 234 236 239 240 240 240 241 242 242 241 241 240 240 240 241 242 244 243 241 242
238 240 240 242 241 233 234 236 232 229 229 226 224 219 216 219 222 223 223 224 229 234 238 242 245 250 255 258 259 261 263 265 266 266 266 265 264 263 264 265 264 261 260 261 259 255 250 246 245 244 241 237 234 231 228 226 227 227 227 226 225 225 227 229 232 235 237 239 239 240 241 242 242 242 242 242 242 242 242 242 243 244 243 243 244
237 239 238 239 237 232 232 232 228 227 227 227 226 224 223 223 223 225 228 232 236 236 237 241 245 251 258 262 263 264 264 266 266 265 266 266 264 264 263 263 262 259 258 260 259 255 251 247 246 245 242 238 236 233 228 227 228 228 227 226 226 226 228 230 232 235 237 239 239 240 241 242 243 244 243 243 243 244 244 243 243 243 244 245 246
234 236 235 237 236 231 227 225 224 225 225 227 227 226 225 223 223 227 230 234 238 239 241 244 248 254 260 263 264 265 265 265 265 265 265 265 264 262 260 260 259 257 256 259 257 253 250 248 246 244 242 239 237 234 229 227 227 226 226 227 227 227 228 230 232 234 237 239 239 240 242 242 243 244 244 244 244 245 245 244 244 245 245 246 247
230 231 231 231 228 222 218 218 219 219 221 223 223 224 224 224 226 230 233 236 240 243 245 248 252 257 261 263 262 262 262 262 263 263 263 263 262 259 257 256 255 254 254 256 255 251 249 247 245 244 242 239 238 236 230 226 225 225 225 226 227 227 228 229 231 234 236 239 240 240 242 243 243 243 244 244 244 245 245 245 246 247 246 247 248
225 224 224 220 214 210 209 210 210 212 214 215 218 222 223 224 227 231 235 239 243 247 249 251 255 257 259 260 260 260 260 262 262 262 260 260 259 257 255 253 252 253 253 254 253 250 248 247 245 244 242 239 238 235 230 225 223 224 225 225 226 226 227 228 231 233 236 238 240 241 242 244 244 244 245 245 245 245 245 246 247 247 247 248 248
218 216 215 210 204 200 200 202 203 206 207 209 214 217 219 221 225 230 235 241 246 249 251 253 255 257 258 259 260 260 260 261 261 260 259 258 258 257 254 251 251 251 251 252 250 249 247 246 244 242 241 239 237 235 230 224 221 222 223 224 225 226 227 229 231 233 236 238 240 242 243 244 245 245 246 247 246 246 246 246 247 248 248 249 248
210 207 206 203 199 195 195 197 199 201 201 203 207 210 212 216 222 232 240 246 251 253 255 257 259 261 261 261 261 261 260 261 260 259 258 257 257 256 253 249 249 249 249 248 246 246 244 243 241 239 239 238 237 234 230 225 222 222 223 224 224 227 230 231 231 233 235 237 240 242 244 244 245 246 247 247 246 247 247 247 246 247 248 249 249
202 200 200 199 196 195 195 195 197 197 197 200 205 209 212 218 229 243 253 257 260 260 261 262 263 263 264 264 262 261 260 260 259 258 259 258 257 255 251 247 247 247 247 246 244 243 242 242 240 238 237 237 237 235 230 227 225 226 228 227 227 229 231 232 232 233 234 236 239 241 244 245 246 247 247 248 247 247 248 248 247 246 248 249 249
196 196 195 196 196 197 196 194 196 197 201 207 212 218 223 232 244 256 262 264 265 265 265 266 265 265 266 265 263 261 260 261 260 258 258 259 258 253 247 244 245 246 246 246 245 244 244 244 242 239 238 238 238 236 233 232 231 232 233 232 230 230 231 232 232 233 236 238 239 241 244 247 248 249 249 248 248 248 248 248 248 247 248 249 249
188 192 193 194 195 197 195 194 197 201 209 216 220 227 236 245 254 260 264 267 268 269 269 268 267 267 266 264 264 264 264 264 263 260 257 256 254 250 245 243 243 245 246 247 247 245 245 245 244 242 241 239 239 238 237 236 235 236 237 236 234 233 233 232 233 236 239 240 241 243 245 247 249 250 250 249 249 249 249 249 250 249 249 250 250
185 190 191 192 194 194 193 195 200 207 217 222 224 231 241 249 255 260 265 268 270 271 272 270 269 268 267 266 264 264 265 265 263 261 256 252 251 249 245 242 242 244 246 246 246 245 244 244 243 242 242 242 241 241 241 239 238 238 238 238 236 236 236 236 238 241 243 244 245 246 247 248 248 249 250 250 250 250 251 251 251 251 251 251 252
192 192 192 192 195 195 196 201 206 214 221 222 222 230 240 248 254 260 266 269 271 273 275 274 272 270 269 268 266 264 265 265 264 260 253 251 251 248 244 241 241 243 245 246 246 245 244 243 242 243 244 244 244 244 245 244 242 240 238 237 236 236 237 238 241 243 246 247 248 249 249 249 250 251 250 251 252 252 253 253 253 253 253 253 253
201 198 195 194 196 197 200 205 210 215 218 219 222 231 241 247 253 260 266 268 270 275 278 278 277 274 271 269 266 266 266 266 265 262 259 256 252 247 244 244 244 244 246 248 248 247 244 243 243 246 247 246 244 244 245 245 243 241 239 238 238 239 239 240 242 244 247 248 250 252 252 252 252 253 253 253 254 254 255 254 254 254 253 253 253
207 204 201 202 201 199 201 204 209 215 216 218 224 233 241 246 252 259 265 269 274 281 284 284 283 280 277 273 270 269 268 268 266 263 262 259 253 250 249 248 249 249 249 250 250 247 243 243 244 246 248 247 244 243 244 243 243 241 240 241 243 242 241 242 244 247 249 249 250 253 254 255 255 256 257 257 257 258 258 257 256 255 254 254 253
208 208 208 209 206 203 203 205 211 217 218 219 222 230 236 239 246 256 266 276 286 292 293 293 292 289 286 280 275 271 269 268 267 264 262 260 256 253 252 251 252 252 252 250 249 246 243 243 245 246 247 247 246 246 245 243 243 243 244 246 246 245 244 245 248 250 251 252 253 254 255 257 258 259 260 261 260 260 260 259 258 257 256 255 255
207 207 207 210 211 211 211 212 214 215 216 217 221 227 230 235 243 252 268 283 294 297 296 298 298 296 292 287 282 275 271 269 268 264 260 259 257 254 253 251 251 252 252 250 248 248 246 245 246 246 246 247 249 248 245 242 242 244 246 248 247 246 247 248 250 251 251 253 255 256 257 259 260 261 262 263 264 264 263 261 259 259 258 257 257
208 207 207 210 213 213 212 211 211 212 214 217 222 228 230 235 242 249 262 278 289 294 297 300 302 302 296 291 287 281 276 272 269 264 259 258 256 254 253 252 251 251 251 251 249 248 248 247 246 246 246 247 248 247 242 239 241 243 245 247 248 248 249 250 250 251 252 254 257 258 260 261 263 264 266 267 268 268 266 265 263 262 261 259 258
210 209 210 212 213 213 212 209 210 212 217 221 226 231 233 238 244 250 259 271 284 294 302 305 308 311 308 300 295 290 283 277 271 264 259 259 257 256 255 254 253 251 251 251 249 248 247 247 246 245 247 248 248 244 237 237 243 246 247 246 246 249 251 250 251 252 253 255 259 261 263 264 265 267 268 269 271 271 269 267 266 265 264 261 260
213 211 212 214 215 216 215 212 213 215 218 223 229 234 237 241 247 252 259 270 283 297 307 307 307 312 314 310 305 300 293 286 278 269 263 262 259 258 256 255 254 253 252 252 250 248 247 246 245 245 246 247 247 243 237 240 246 247 247 246 245 248 249 249 250 253 255 256 260 262 262 263 265 267 269 272 274 275 272 270 269 268 267 265 263
216 214 215 217 218 217 215 215 215 217 220 223 228 233 236 241 248 252 260 270 280 293 304 303 300 301 305 309 308 304 300 294 286 278 272 266 263 260 257 256 254 253 253 252 250 249 247 246 247 247 246 244 245 243 241 243 244 244 246 246 246 247 248 248 250 253 255 256 259 261 261 262 264 267 271 275 278 279 277 274 274 272 270 269 267
216 215 216 218 219 218 216 215 216 217 221 223 225 230 232 237 244 250 259 270 276 287 297 297 292 292 298 305 307 304 300 298 293 286 280 274 269 263 259 257 256 255 254 253 252 251 249 248 248 247 246 245 243 242 243 243 243 245 247 246 245 246 247 246 246 251 255 256 259 261 262 263 267 270 272 276 278 280 280 278 277 276 274 273 271
215 215 217 218 218 217 216 216 216 218 221 223 225 229 231 234 241 248 256 264 273 282 291 292 287 287 294 301 304 302 299 300 299 294 287 280 274 267 262 259 257 257 256 255 254 253 251 250 249 247 246 246 244 242 244 244 244 246 247 245 246 248 246 243 244 248 253 259 261 261 264 268 271 273 275 277 278 279 279 279 279 278 277 277 276
214 215 218 218 218 218 217 216 217 219 222 225 227 230 233 237 243 249 256 262 269 278 286 290 288 286 290 296 299 299 297 297 298 297 292 284 278 272 267 263 259 257 256 256 254 253 252 250 249 248 246 245 244 244 244 244 245 246 245 246 248 248 245 244 244 244 246 254 261 264 269 273 274 276 278 280 279 279 279 280 280 281 281 281 280
215 215 217 218 218 218 218 218 219 222 225 228 230 233 236 241 247 252 259 265 269 275 281 287 288 285 286 290 294 296 296 294 295 295 291 284 279 275 269 264 260 257 255 256 254 252 251 250 249 248 247 245 243 243 244 243 243 244 245 247 248 247 245 246 246 245 244 246 253 262 269 274 275 278 281 282 282 281 280 281 282 282 283 284 284
216 215 216 217 217 217 218 219 221 224 227 230 231 234 239 245 249 253 260 267 272 276 279 283 284 283 284 285 289 293 293 292 292 292 289 284 278 275 270 263 258 254 251 252 252 251 251 250 249 247 245 244 242 242 241 240 240 241 242 244 245 244 245 246 246 247 247 246 249 256 263 270 276 281 282 282 284 284 283 284 284 284 284 286 286
216 215 213 214 215 215 217 217 220 223 226 229 231 234 240 246 251 255 261 268 273 277 280 282 282 281 280 281 283 288 291 290 290 290 287 283 276 273 269 260 253 248 244 245 248 249 250 249 248 246 243 242 242 241 240 238 239 239 240 242 242 242 244 246 247 248 250 251 253 256 261 267 272 278 281 281 282 284 286 286 286 287 287 287 287
215 215 213 213 214 216 218 220 222 225 227 230 233 237 242 247 251 256 262 267 272 276 279 280 280 279 278 279 281 285 289 290 289 288 285 280 274 269 265 256 248 243 239 241 244 244 243 241 242 242 241 240 239 239 237 237 239 238 240 243 245 245 246 247 248 250 252 254 255 257 262 265 268 271 276 279 281 282 285 287 288 289 290 289 288